GEFSSGP_con_prob3kmehi_132.txt.gz
EHI
0 0 0 0 0 0 0 0 0 0 0 0 0 0 0 0 0 1 4 14 30 34 25 24 32 40 46 48 42 37 33 25 18 12 7 3 1 0 0 0 0 0 0 0 0 0 0 0 0
0 0 0 0 0 0 0 0 0 0 0 0 0 0 1 1 2 3 6 17 33 37 29 28 35 41 45 48 43 36 30 21 13 9 6 3 1 0 0 0 0 0 0 0 0 0 0 0 0
0 0 0 0 0 0 0 0 0 1 2 2 2 2 3 4 5 6 11 24 39 40 32 34 41 44 45 46 40 31 22 11 6 5 4 2 1 0 0 0 0 0 0 0 0 0 0 0 0
0 0 0 0 0 0 0 0 1 4 4 5 6 7 7 6 7 12 23 37 47 44 36 40 48 49 45 43 36 25 14 5 2 2 1 1 0 0 0 0 0 0 0 0 0 0 0 0 0
0 0 0 0 0 0 0 0 2 5 8 10 13 13 10 8 12 25 39 49 54 50 42 44 52 52 47 42 33 22 11 4 1 0 0 0 0 0 0 0 0 0 0 0 0 0 0 0 0
0 0 0 0 0 0 0 0 2 7 12 16 18 17 13 12 22 38 47 51 55 55 50 48 51 51 47 41 31 19 11 4 1 0 0 0 0 0 0 0 0 0 0 0 0 0 0 0 0
0 0 0 0 0 0 0 1 4 9 15 18 21 20 17 20 32 46 51 53 56 58 56 51 48 46 42 35 26 17 10 4 1 0 0 0 0 0 0 0 0 0 0 0 0 0 0 0 0
0 0 0 0 0 0 0 1 5 11 17 18 19 18 23 34 48 57 62 63 63 61 57 51 47 43 36 29 22 15 8 2 0 0 0 0 0 0 0 0 0 0 0 0 0 0 0 0 0
0 0 0 0 0 0 0 2 7 16 20 19 17 21 36 56 67 70 73 74 70 62 55 49 46 41 35 29 22 13 5 1 0 0 0 0 0 0 0 0 0 0 0 0 0 0 0 0 0
0 0 0 0 0 0 0 2 12 23 24 20 24 38 58 72 75 74 75 74 68 59 52 47 42 38 34 31 23 12 4 1 0 0 0 0 0 0 0 0 0 0 0 0 0 0 0 0 0
0 0 0 0 0 0 1 4 14 23 23 24 38 59 73 76 72 67 65 64 61 56 50 44 38 34 32 30 24 14 5 1 0 0 0 0 0 0 0 0 0 0 0 0 0 0 0 0 0
0 0 0 0 0 0 2 6 14 20 21 29 48 67 74 71 64 58 54 54 53 49 45 39 34 31 30 28 23 15 5 1 0 0 0 1 0 0 0 0 0 0 0 0 0 0 0 0 0
0 0 0 0 0 1 5 11 15 19 24 35 53 65 68 64 57 51 48 47 45 41 35 33 31 27 26 24 20 12 4 1 0 0 0 0 0 0 0 0 0 0 0 0 0 0 0 0 0
0 0 0 0 0 2 7 12 16 21 28 41 53 59 60 58 53 48 47 44 40 35 30 29 27 23 21 18 13 7 3 0 0 0 0 0 0 0 0 0 0 0 0 0 0 0 0 0 0
0 0 0 0 0 2 5 8 13 22 33 42 49 52 52 50 47 46 44 40 37 32 29 27 25 20 16 11 7 5 2 0 0 0 0 0 0 0 0 0 0 0 0 0 0 0 0 0 0
0 0 0 0 0 1 2 3 9 23 37 42 43 45 46 44 42 40 37 34 31 29 27 26 25 20 13 8 6 5 3 1 0 0 0 0 0 0 0 0 0 0 0 0 0 0 0 0 0
0 0 0 0 0 0 0 1 7 21 36 40 40 43 45 43 38 35 31 29 27 26 26 25 23 17 12 9 8 6 3 1 0 0 0 0 0 0 0 0 0 0 0 0 0 0 0 0 0
0 0 0 0 0 0 0 1 6 18 29 34 36 39 41 38 34 30 28 26 25 23 22 20 17 14 12 12 10 6 2 0 0 0 0 0 0 0 0 0 0 0 0 0 0 0 0 0 0
0 0 0 0 0 0 0 0 5 15 22 25 28 29 29 27 24 23 23 22 22 19 16 12 10 10 11 12 9 4 0 0 0 0 0 0 0 0 0 0 0 0 0 0 0 0 0 0 0
0 0 0 0 0 0 0 0 3 10 14 17 19 19 18 16 16 18 19 19 19 17 13 8 5 6 8 8 5 2 0 0 0 0 0 0 0 0 0 0 0 0 0 0 0 0 0 0 0
0 0 0 0 0 0 0 0 1 4 6 8 11 12 12 11 11 14 18 19 18 15 11 8 5 4 5 4 2 0 0 0 0 0 0 0 0 0 0 0 0 0 0 0 0 0 0 0 0
0 0 0 0 0 0 0 0 0 1 2 4 6 9 11 11 10 13 17 18 15 12 9 7 4 3 3 3 2 0 0 0 1 0 0 0 0 0 0 0 0 0 0 0 0 0 0 0 0
0 0 0 0 0 0 0 0 0 0 1 2 4 7 9 12 12 14 16 16 13 9 7 5 4 3 3 3 1 0 0 0 1 0 0 1 1 0 0 0 0 0 0 0 0 0 0 0 0
0 0 0 0 0 0 0 0 0 0 0 1 2 4 7 11 14 14 15 15 11 8 6 4 3 3 3 2 1 0 0 0 1 1 1 2 2 1 0 0 0 0 0 0 0 0 0 0 0
0 0 0 0 0 0 0 0 0 0 0 0 1 3 6 10 12 14 15 14 11 8 5 4 3 3 3 2 1 0 0 0 0 1 1 2 2 1 0 0 0 0 0 0 0 0 0 0 0
0 0 0 0 0 0 0 0 0 0 0 0 1 3 7 10 12 13 15 14 11 8 5 3 3 3 3 2 1 0 0 0 0 0 1 1 1 0 0 0 0 0 0 0 0 0 0 0 0
0 0 0 0 0 0 0 0 0 0 0 0 1 3 7 9 10 13 15 15 12 8 4 3 3 3 3 2 1 0 0 0 0 0 0 0 0 0 0 0 0 0 0 0 0 0 0 0 0
0 0 0 0 0 0 0 0 0 0 0 0 1 3 5 6 7 10 13 13 11 7 4 3 3 3 3 2 1 0 0 0 0 0 0 0 0 0 0 0 0 0 0 0 0 0 0 0 0
0 0 0 0 0 0 0 0 0 0 0 0 1 2 3 3 4 6 9 10 9 7 5 4 3 3 3 1 0 0 0 0 0 0 0 0 0 0 0 0 0 0 0 0 0 0 0 0 0
0 0 0 0 0 0 0 0 0 0 0 0 0 1 3 3 3 4 5 7 7 7 6 5 4 3 2 1 0 0 0 0 0 0 0 0 0 0 0 0 0 0 0 0 0 0 0 0 0

GEFSSGP_con_prob3kmehi_138.txt.gz
EHI
0 0 0 0 0 0 0 0 0 0 0 0 0 0 0 0 0 2 6 10 17 24 23 15 11 12 15 17 18 19 18 10 3 0 0 0 0 0 0 0 0 0 0 0 0 0 0 0 0
0 0 0 0 0 0 0 0 0 0 0 0 0 0 0 1 1 4 10 14 19 24 24 20 16 13 14 15 16 18 16 9 3 1 0 0 0 0 0 0 0 0 0 0 0 0 0 0 0
0 0 0 0 0 0 0 0 0 0 0 0 0 0 1 3 5 10 18 22 22 22 25 30 25 15 12 13 14 15 12 7 3 1 0 0 0 0 0 0 0 0 0 0 0 0 0 0 0
0 0 0 0 0 0 0 0 0 0 0 0 0 1 4 8 12 18 27 30 25 19 24 35 30 16 10 12 13 12 9 6 3 1 0 0 0 0 0 0 0 0 0 0 0 0 0 0 0
0 0 0 0 0 0 0 0 0 0 0 0 0 2 8 14 20 27 33 30 22 16 22 33 31 19 13 12 12 11 8 5 2 0 0 0 0 0 0 0 0 0 0 0 0 0 0 0 0
0 0 0 0 0 0 0 0 0 0 0 0 0 4 14 25 34 39 35 24 15 13 20 29 27 19 15 13 12 11 9 6 3 1 0 0 0 0 0 0 0 0 0 0 0 0 0 0 0
0 0 0 0 0 0 0 0 0 0 0 0 0 4 20 41 55 56 42 24 15 13 19 23 18 12 11 10 10 11 10 8 4 1 0 0 0 1 0 0 0 0 0 0 0 0 0 0 0
0 0 0 0 0 0 0 0 0 1 1 1 1 6 27 58 75 73 58 37 24 19 18 17 12 7 5 4 5 6 8 7 4 1 0 0 0 0 0 0 0 0 0 0 0 0 0 0 0
0 0 0 0 0 0 0 0 0 1 2 3 5 15 42 72 86 85 76 60 45 32 22 17 15 10 4 1 2 2 3 4 3 1 0 0 0 0 0 0 0 0 0 0 0 0 0 0 0
0 0 0 0 0 0 0 0 0 1 2 5 12 32 62 82 90 91 87 78 66 49 32 23 22 17 9 6 5 3 2 2 1 1 0 1 1 1 0 0 0 0 0 0 0 0 0 0 0
0 0 0 0 0 0 0 0 0 0 1 5 18 45 71 84 89 90 87 80 71 57 42 33 30 24 18 15 13 10 8 5 3 1 2 3 3 2 1 0 0 0 0 0 0 0 0 0 0
0 0 0 0 0 0 0 0 0 1 3 7 23 50 71 79 82 82 80 75 67 58 48 41 36 32 29 27 22 16 13 11 7 4 4 4 4 3 1 0 1 1 0 0 0 0 0 0 0
0 0 0 0 0 0 0 0 0 2 8 14 29 53 69 74 73 72 73 71 65 58 51 44 40 40 41 39 32 21 16 13 10 8 5 3 4 3 2 2 1 0 0 0 0 0 0 0 0
0 0 0 0 0 0 0 0 1 5 12 21 34 52 64 68 67 66 67 66 63 57 51 44 42 44 47 45 36 24 16 14 12 10 6 3 3 3 3 3 1 0 0 0 0 0 0 0 0
0 0 0 0 0 0 0 0 2 6 14 24 35 46 56 61 60 58 60 61 57 52 46 42 41 44 47 44 35 24 17 14 14 13 8 4 4 5 4 3 2 1 0 0 0 0 0 0 0
0 0 0 0 0 0 0 0 2 6 13 23 33 41 49 54 52 51 52 53 49 45 43 41 40 42 44 43 36 27 19 17 17 16 11 6 4 4 4 4 3 1 0 0 0 0 0 0 0
0 0 0 0 0 0 0 0 2 4 9 19 30 38 44 47 46 44 45 46 44 41 41 40 39 40 42 43 41 33 24 21 19 16 11 6 3 2 3 4 3 1 0 0 0 0 0 0 0
0 0 0 0 0 0 0 1 2 4 8 15 25 32 36 38 38 38 39 40 41 41 40 38 36 37 40 44 45 37 27 22 18 12 8 5 2 1 2 3 3 1 0 0 0 0 0 0 0
0 0 0 0 0 0 0 1 3 5 7 13 20 24 25 28 32 35 37 37 39 41 40 38 35 34 39 44 46 39 30 23 16 9 6 4 2 1 1 2 3 1 0 0 0 1 0 0 0
0 0 0 0 0 0 0 1 3 4 5 10 17 19 19 23 29 33 36 37 38 38 38 36 34 33 34 38 42 40 33 25 15 7 4 3 2 2 2 2 2 1 1 0 0 0 0 0 0
0 0 0 0 0 0 0 1 3 3 4 8 14 17 17 20 24 27 32 36 37 36 34 31 31 31 28 29 33 35 31 22 12 6 3 2 2 2 3 2 1 1 1 1 0 0 0 0 0
0 0 0 0 0 0 0 0 2 3 3 7 11 14 16 18 20 23 27 32 34 33 30 27 26 25 23 22 23 24 22 16 9 5 3 3 3 4 3 2 1 1 1 1 0 0 0 0 0
0 0 0 0 0 0 0 0 1 3 3 5 8 11 13 15 18 21 25 28 30 28 26 24 22 19 15 14 15 16 14 11 10 6 4 4 5 5 4 3 1 1 1 1 0 0 0 0 0
0 0 0 0 0 0 0 0 1 2 3 4 6 9 11 13 17 20 22 25 27 26 23 21 19 14 9 7 10 11 9 8 8 4 2 4 6 6 5 3 3 2 1 1 1 0 0 0 0
0 0 0 0 0 0 0 0 1 1 1 3 5 7 9 12 15 19 22 25 26 24 21 19 16 12 6 4 6 6 5 4 3 1 0 2 4 6 6 5 4 3 1 1 1 0 0 0 0
0 0 0 0 0 0 0 0 1 0 0 1 4 7 9 10 12 16 21 24 24 20 18 17 15 11 6 5 4 4 3 3 2 1 0 1 3 5 7 6 4 2 1 1 1 0 0 0 0
0 0 0 0 0 0 0 0 0 0 0 1 4 7 9 9 8 11 17 22 20 17 15 14 13 10 7 6 5 5 4 3 3 2 1 1 3 5 6 5 4 3 2 2 1 0 0 0 0
0 0 0 0 0 0 0 0 0 0 0 2 4 7 9 9 8 9 15 19 17 14 12 10 10 10 8 7 6 4 3 3 4 4 4 4 4 5 5 4 3 3 3 1 0 0 0 0 0
0 0 0 0 0 0 0 0 0 0 0 1 2 6 10 10 9 10 15 18 18 14 10 8 8 9 9 7 6 4 3 3 3 4 6 6 5 5 5 4 3 2 2 1 0 0 0 0 0
0 0 0 0 0 0 0 0 0 0 0 0 1 6 11 11 8 10 15 19 19 16 11 7 7 9 9 8 6 4 3 2 2 4 6 6 5 4 4 3 2 1 1 0 0 0 0 0 0

GEFSSGP_con_prob3kmehi_144.txt.gz
EHI
1 6 13 13 9 6 3 0 0 0 0 0 0 2 6 6 5 8 24 54 73 61 40 37 37 22 7 2 0 0 0 0 0 0 0 0 0 0 0 0 0 0 0 0 0 0 0 0 0
1 5 9 9 8 5 2 0 0 0 0 0 0 2 4 4 6 13 34 61 71 56 38 35 36 23 9 3 1 1 0 0 0 0 0 0 0 0 0 0 0 0 0 0 0 0 0 0 0
1 3 4 6 6 3 0 0 0 0 0 0 1 2 3 4 10 26 49 66 67 53 42 41 38 25 11 5 3 2 1 0 0 0 0 0 0 0 0 0 0 0 0 0 0 0 0 0 0
3 3 2 3 2 1 0 0 0 0 0 0 3 6 7 8 20 39 56 66 65 56 51 49 43 28 13 6 3 2 1 0 0 0 0 0 0 0 0 0 0 0 0 0 0 0 0 0 0
3 2 1 0 0 0 0 0 0 0 0 1 8 16 17 17 29 42 51 60 65 64 57 50 45 32 15 6 3 2 1 0 0 0 0 0 0 0 0 0 0 0 0 0 0 0 0 0 0
1 1 0 0 0 0 0 0 0 0 0 2 13 26 30 31 36 38 41 52 66 70 61 50 43 32 16 6 3 2 1 0 0 0 0 0 0 0 0 0 0 0 0 0 0 0 0 0 0
0 0 0 0 0 0 0 0 0 0 1 3 13 30 43 46 42 36 37 48 66 73 64 49 38 27 14 6 3 1 1 0 0 0 0 0 0 0 0 0 0 0 0 0 0 0 0 0 0
0 0 0 0 0 0 0 0 0 0 2 3 11 32 54 57 48 41 40 51 69 75 64 48 35 23 11 5 2 1 1 0 0 0 0 0 0 0 0 0 0 0 0 0 0 0 0 0 0
0 0 0 0 0 0 0 0 0 0 2 6 17 39 58 61 56 51 50 62 79 81 64 50 38 23 9 4 2 1 1 0 0 0 0 0 0 0 0 0 0 0 0 0 0 0 0 0 0
0 0 0 0 0 0 0 0 0 1 3 10 28 49 60 62 64 64 64 76 90 88 71 57 45 25 12 9 6 2 1 0 0 0 0 0 0 0 1 1 0 0 0 0 0 0 0 0 0
0 0 0 0 0 0 0 0 0 1 4 13 33 55 64 65 70 73 76 87 96 91 80 70 54 34 25 23 14 5 2 1 0 1 1 0 1 1 2 2 0 0 0 0 0 0 0 0 0
0 0 0 0 0 0 0 0 0 0 4 14 32 53 64 68 74 81 86 93 97 92 85 80 68 54 49 42 25 11 7 5 3 4 3 2 2 4 4 2 1 0 0 0 0 1 0 0 0
0 0 0 0 0 0 0 0 0 2 6 15 29 48 62 68 76 85 91 94 95 92 87 86 81 74 69 59 38 25 21 15 12 11 8 4 5 9 8 4 2 1 1 0 0 0 0 0 0
0 0 0 0 0 0 0 0 0 3 10 16 28 44 57 67 77 85 92 93 93 91 89 88 87 82 79 69 52 39 34 29 25 21 16 11 12 17 16 9 4 4 5 4 2 0 0 0 0
0 0 0 0 0 0 0 0 1 5 11 17 25 39 55 67 75 82 88 90 89 89 90 87 84 82 80 71 58 46 40 40 41 38 30 23 24 25 21 11 6 9 13 11 4 0 0 1 1
0 0 0 0 0 0 0 1 3 5 10 16 22 35 55 68 73 77 83 84 84 86 88 85 79 78 77 71 61 52 48 51 55 51 40 32 30 27 20 12 10 14 15 11 5 1 1 2 2
0 0 0 0 0 0 0 1 3 4 8 15 22 35 54 68 73 77 80 80 80 82 84 82 78 78 78 73 67 61 60 63 62 53 41 35 31 24 17 15 15 14 11 7 4 3 3 3 3
0 0 0 0 0 0 0 1 2 4 6 12 23 37 53 66 75 79 80 79 78 80 81 79 77 78 77 74 69 64 64 66 62 51 43 39 32 22 16 16 18 14 9 7 6 5 6 4 2
0 0 0 0 0 0 0 1 2 4 5 10 23 40 54 65 73 78 78 77 77 78 79 77 76 75 74 72 67 60 60 63 60 52 47 41 32 23 17 16 17 13 11 10 8 7 6 4 1
0 0 0 0 0 0 1 1 2 4 5 9 22 39 51 59 67 72 73 71 71 73 75 74 74 73 71 69 65 58 55 56 55 53 48 40 32 24 19 19 16 14 15 13 9 7 5 3 1
0 0 0 0 0 0 1 2 4 6 6 8 19 33 42 50 61 67 69 67 65 65 65 66 69 70 68 65 61 55 48 45 47 51 46 39 34 25 20 21 19 16 16 13 8 4 2 1 0
0 0 0 0 0 0 0 1 4 7 7 9 18 26 32 42 56 65 67 65 60 57 56 58 62 66 64 60 55 47 39 38 42 46 44 40 36 26 20 21 21 18 15 11 5 1 0 0 0
0 0 0 0 0 0 0 0 2 5 7 10 16 21 26 35 50 61 63 59 55 52 51 52 56 60 58 54 49 40 33 35 40 43 43 42 36 25 18 18 19 18 15 11 6 3 2 1 1
0 0 0 0 0 0 0 0 2 4 6 10 15 19 24 32 44 54 54 51 51 49 48 49 51 53 52 48 42 34 30 33 39 42 41 38 31 23 17 16 17 17 16 13 9 7 4 2 2
0 0 0 0 0 0 0 0 2 4 5 8 13 19 25 32 42 47 46 46 47 47 46 46 46 47 45 40 35 30 27 30 34 35 33 28 21 18 18 18 18 16 14 13 10 7 5 3 3
0 0 0 0 0 0 0 1 2 3 3 5 11 17 24 31 37 39 39 41 43 44 43 42 42 41 38 34 29 24 22 23 24 25 24 19 14 15 20 23 20 16 13 11 8 6 5 4 4
0 0 0 0 0 0 1 1 2 2 2 5 9 16 21 27 32 32 33 37 39 40 40 39 38 37 34 30 24 19 16 16 16 20 20 16 13 16 22 23 19 15 12 11 8 6 6 6 5
0 0 0 0 0 0 1 2 2 3 4 7 13 17 21 26 29 30 32 35 36 38 37 35 34 32 30 26 21 17 15 15 15 17 19 20 19 20 21 18 15 13 11 10 9 7 6 6 4
0 0 0 0 0 0 0 1 1 3 5 10 16 18 21 25 29 31 35 36 36 35 34 31 29 28 26 23 20 18 17 15 14 14 18 24 27 25 21 16 13 11 10 11 10 7 5 4 4
0 0 0 0 0 0 0 0 1 3 6 10 15 18 20 25 30 32 35 38 36 34 33 29 26 24 23 20 19 19 18 15 12 12 17 27 32 28 21 15 12 9 10 12 10 6 4 4 3

GEFSSGP_con_prob3kmehi_150.txt.gz
EHI
8 4 1 0 0 0 0 0 0 0 1 2 5 9 11 5 1 1 7 23 40 40 29 29 37 33 17 5 1 1 1 0 0 0 0 0 0 0 0 0 0 0 0 0 0 0 0 0 0
4 2 0 0 0 0 0 0 0 0 2 4 5 6 7 6 4 4 12 31 48 46 33 31 39 35 19 6 1 0 0 0 0 0 0 0 0 0 0 0 0 0 0 0 0 0 0 0 0
1 0 0 0 0 0 0 0 0 3 7 10 7 3 4 9 11 14 24 44 55 50 38 38 43 37 21 8 2 0 0 0 0 0 0 0 0 0 0 0 0 0 0 0 0 0 0 0 0
0 0 0 0 1 0 0 0 1 6 12 17 15 7 5 16 29 38 46 54 55 48 41 44 47 39 24 11 3 1 0 0 0 0 0 0 0 0 0 0 0 0 0 0 0 0 0 0 0
0 0 0 0 0 0 0 0 3 10 17 24 25 16 13 31 56 66 63 58 55 50 45 46 49 42 28 12 4 1 0 0 0 0 0 0 0 0 0 0 0 0 0 0 0 0 0 0 0
0 0 0 0 0 0 0 1 5 13 20 28 34 26 23 45 72 76 66 61 61 58 50 45 45 40 27 13 4 1 1 0 0 0 0 0 0 0 0 0 0 0 0 0 0 0 0 0 0
0 0 0 0 0 0 0 1 6 14 21 30 39 34 31 51 71 72 64 62 65 62 53 44 38 31 21 12 5 3 2 1 0 0 0 0 0 0 0 0 0 0 0 0 0 0 0 0 0
0 0 0 0 0 0 0 0 5 14 25 35 41 39 41 58 72 72 66 64 64 60 53 44 35 25 16 10 6 3 3 2 0 0 0 0 0 0 0 0 0 0 0 0 0 0 0 0 0
0 0 0 0 0 0 0 1 7 19 34 44 47 49 59 74 81 79 74 68 65 61 54 46 36 25 16 10 6 3 2 1 0 0 0 0 0 0 0 0 0 0 0 0 0 0 1 1 1
0 0 0 0 0 0 0 3 11 26 42 53 59 65 76 85 86 85 81 75 71 67 59 48 37 26 18 12 7 4 1 0 0 0 0 0 0 0 0 0 0 0 0 1 1 1 1 0 0
0 0 0 0 0 0 0 2 11 27 43 57 67 75 82 87 86 86 85 80 75 70 63 50 38 27 18 12 9 5 2 1 0 0 0 0 0 0 0 0 0 0 0 0 0 0 0 0 0
0 0 0 0 0 0 0 1 9 22 38 54 66 73 79 84 85 86 87 83 76 70 63 52 41 28 16 11 9 5 2 1 0 0 0 0 0 0 0 0 0 0 0 0 0 0 0 0 0
0 0 0 0 0 0 0 1 7 20 37 54 66 71 75 79 83 86 89 86 80 73 63 52 43 30 17 10 7 4 1 0 0 0 0 0 0 0 0 0 0 0 0 0 0 0 0 0 0
0 0 0 0 0 0 0 1 8 24 41 56 64 66 68 74 81 87 91 90 84 76 65 53 42 31 21 14 9 4 1 0 0 0 0 0 0 0 0 0 0 0 0 0 0 0 0 0 0
0 0 0 0 0 0 1 2 10 27 45 55 58 59 63 71 80 88 93 92 86 79 69 56 43 33 25 18 12 7 2 0 0 0 0 0 0 0 0 0 0 0 0 0 0 0 0 0 0
0 0 0 0 0 0 1 2 9 26 41 47 51 56 61 67 76 85 90 90 87 82 74 62 49 39 28 20 14 10 6 3 1 1 1 0 0 0 0 0 0 0 0 0 0 0 0 0 0
0 0 0 0 0 0 0 1 8 22 32 37 45 54 61 66 71 78 84 87 86 83 76 66 56 45 32 22 17 14 11 7 3 3 2 1 1 1 0 0 0 0 0 0 0 0 0 0 0
0 0 0 0 0 0 0 2 9 19 25 30 38 49 61 66 68 73 79 82 84 82 74 66 58 48 35 26 22 20 16 10 7 6 4 3 3 2 1 0 0 0 0 0 0 0 0 0 0
0 0 0 0 0 0 1 3 9 14 20 25 33 46 59 65 68 72 77 79 79 77 70 64 58 51 40 31 28 26 21 15 12 11 9 8 6 3 1 0 0 0 0 0 0 0 0 0 0
0 0 0 0 0 0 1 3 6 10 14 20 28 41 53 61 68 74 76 74 73 71 68 64 60 54 45 35 31 29 24 18 15 14 13 12 8 4 1 0 0 0 0 0 0 0 0 0 0
0 0 0 0 0 0 0 1 2 6 11 15 22 34 46 55 63 70 70 66 63 63 63 61 59 55 47 38 32 30 25 20 16 14 14 13 9 5 1 0 0 0 0 0 0 0 0 0 0
0 0 0 0 0 0 0 0 1 4 9 13 17 27 40 48 54 58 58 56 55 54 55 55 55 53 47 40 35 32 28 23 19 15 13 11 9 5 2 0 0 0 0 0 0 0 0 0 0
0 0 0 0 0 0 0 0 0 3 9 12 16 23 33 40 44 45 46 48 49 50 50 50 50 48 44 39 35 30 26 22 20 17 12 9 7 5 2 1 0 0 0 0 0 0 0 0 0
0 0 0 0 0 0 0 0 0 2 7 12 15 19 27 33 37 38 39 41 44 46 48 47 45 41 38 34 31 25 19 17 18 17 11 8 6 4 2 1 1 0 0 0 0 0 0 0 0
0 0 0 0 0 0 0 0 0 1 5 11 15 18 24 28 32 34 35 35 36 39 42 41 39 34 29 27 25 20 14 12 14 14 9 6 4 3 2 2 1 0 0 0 0 0 0 0 0
0 0 0 0 0 0 0 0 0 1 5 10 13 17 22 25 27 29 30 30 29 31 35 35 32 26 22 21 19 16 11 8 9 8 7 4 2 2 2 2 2 1 0 0 0 0 0 0 0
0 0 0 0 0 0 0 0 0 1 5 8 10 14 18 19 21 23 24 23 22 23 28 30 26 20 16 14 13 11 9 7 5 5 5 3 1 1 1 2 2 1 0 0 0 0 0 0 0
0 0 0 0 0 0 0 0 0 1 3 5 7 11 13 16 19 20 19 18 18 21 23 23 21 16 11 8 7 7 6 5 4 3 3 2 0 0 0 1 2 1 0 0 0 0 0 0 0
0 0 0 0 0 0 0 0 0 1 2 3 4 7 9 12 16 18 17 17 19 20 20 18 15 11 7 5 5 4 3 2 1 2 2 1 0 0 0 1 2 1 0 0 0 0 0 0 0
0 0 0 0 0 0 0 0 0 1 2 3 3 5 7 9 13 17 17 17 20 20 18 16 11 7 4 4 3 2 1 0 0 1 1 0 0 0 1 2 2 1 0 0 0 0 0 0 0

GEFSSGP_con_prob3kmehi_156.txt.gz
EHI
1 1 0 0 0 0 0 0 0 0 0 0 1 1 2 1 0 0 1 4 8 9 5 4 11 17 20 20 19 17 14 11 8 5 3 1 0 0 0 0 0 0 0 0 0 0 0 0 0
1 0 0 0 0 0 0 0 0 0 0 0 1 3 4 2 1 0 2 6 11 11 6 6 12 18 20 20 19 17 15 11 7 5 3 2 1 1 0 0 0 0 0 0 0 0 0 0 0
0 0 0 0 0 0 0 0 1 1 1 0 2 4 5 3 1 1 4 10 15 14 8 9 16 21 20 18 18 16 13 9 6 4 3 3 3 2 1 0 0 0 0 0 0 0 0 0 0
0 0 0 0 0 0 0 1 3 4 2 1 3 5 5 3 3 6 14 20 22 17 11 14 21 23 19 16 15 13 10 7 4 3 3 3 2 2 1 0 0 0 0 0 0 0 0 0 0
0 0 0 0 0 0 0 1 3 4 3 3 6 7 5 3 7 17 25 29 29 24 16 18 26 26 19 14 12 10 7 5 4 3 2 1 1 1 1 1 0 0 0 0 0 0 0 0 0
0 0 0 0 0 0 0 1 2 4 4 6 9 9 5 4 14 26 31 30 32 31 24 22 26 25 18 13 10 8 5 5 4 3 1 0 0 0 1 1 0 0 0 0 0 0 0 0 0
0 0 0 0 0 0 1 1 3 4 6 8 11 11 9 10 21 33 35 32 33 34 32 27 22 18 14 10 9 7 5 4 3 2 1 0 0 0 0 0 0 0 0 0 0 0 0 0 0
0 0 0 0 0 0 1 2 3 4 7 10 12 12 16 24 35 43 45 42 37 35 34 29 20 11 7 6 6 6 5 4 3 1 0 0 0 0 0 0 0 0 0 0 0 1 1 0 0
0 0 0 0 0 0 1 2 3 5 11 14 14 19 34 51 58 58 58 53 46 39 34 29 21 10 4 2 3 5 4 3 2 1 0 0 0 0 0 0 0 0 0 0 0 1 1 0 0
0 0 0 0 0 0 1 2 4 9 14 19 25 40 63 75 73 67 63 58 52 46 37 30 22 12 3 1 2 4 3 2 1 0 0 0 0 0 0 0 0 0 0 0 0 1 1 0 0
0 0 0 0 0 0 1 2 5 10 13 22 43 67 82 84 77 68 60 54 53 51 43 33 25 16 6 2 2 3 2 1 0 0 0 0 0 0 0 0 0 0 0 0 0 0 0 0 0
0 0 0 0 0 0 1 2 5 8 9 24 56 80 86 84 77 65 54 49 51 53 47 38 30 22 12 5 3 2 1 0 0 0 0 0 0 0 0 0 0 0 0 0 0 0 0 0 0
0 0 0 0 0 0 2 3 4 6 13 35 66 82 84 82 75 62 51 48 50 54 50 42 35 28 17 10 6 4 1 0 0 0 0 0 0 0 0 0 0 0 0 0 0 0 0 0 0
0 0 0 0 0 1 2 3 3 8 23 50 73 80 79 78 71 64 58 52 50 52 50 45 38 30 20 13 8 6 4 1 0 0 0 0 0 0 0 0 0 0 0 0 0 0 0 0 0
0 0 0 0 0 0 1 2 3 12 33 56 70 73 72 69 65 63 61 56 52 52 50 45 38 30 22 14 9 8 7 3 1 0 0 0 0 0 0 0 0 0 0 0 0 0 0 0 0
0 0 0 0 0 0 0 1 2 14 35 51 57 60 59 55 52 54 55 53 52 54 52 46 38 30 20 12 8 8 7 3 1 0 0 0 0 0 0 0 0 0 0 0 0 0 0 0 0
0 0 0 0 0 0 0 0 2 14 31 43 45 46 45 40 41 47 52 53 52 53 54 50 41 30 20 12 7 5 4 2 0 0 0 0 0 0 0 0 0 0 0 0 0 0 0 0 0
0 0 0 0 0 0 0 0 2 11 25 34 34 34 35 33 34 43 52 56 55 51 49 49 44 34 24 15 7 4 2 1 0 0 0 0 0 0 0 0 0 0 0 0 0 0 0 0 0
0 0 0 0 0 0 0 0 3 10 20 25 24 24 28 30 32 39 50 59 61 54 47 46 44 37 27 18 9 4 2 1 0 0 0 0 0 0 0 0 0 0 0 0 0 0 0 0 0
0 0 0 0 0 0 0 1 4 9 14 16 15 16 21 28 33 39 48 58 62 58 52 47 42 37 29 20 11 6 3 2 1 0 0 0 0 0 0 0 0 0 0 0 0 0 0 0 0
0 0 0 0 0 0 0 1 4 6 7 7 7 9 16 25 34 41 48 53 56 56 52 46 40 36 31 22 14 9 7 5 4 2 1 1 1 1 0 0 0 0 0 0 0 0 0 0 0
0 0 0 0 0 0 0 1 2 2 1 1 3 7 11 20 30 37 42 47 47 45 44 41 37 35 31 25 18 14 11 8 7 6 4 4 3 2 1 0 0 0 0 0 0 0 0 0 0
0 0 0 0 0 0 0 0 0 0 0 0 2 6 10 15 24 30 35 39 39 36 35 36 34 32 30 26 21 18 14 10 9 9 8 6 4 2 1 0 0 0 0 0 0 0 0 0 0
0 0 0 0 0 0 0 0 0 0 0 0 1 4 8 13 20 26 30 33 33 31 31 31 30 29 29 26 23 20 16 12 9 9 8 7 4 3 2 1 0 0 0 0 0 0 0 0 0
0 0 0 0 0 0 0 0 0 0 0 0 0 2 7 12 18 23 27 29 28 26 26 26 25 25 26 26 23 21 17 12 8 8 8 7 5 4 3 1 0 0 0 0 0 0 0 0 0
0 0 0 0 0 0 0 0 0 0 0 0 1 3 7 11 15 20 22 21 20 19 20 21 19 18 20 21 21 20 16 10 7 7 7 6 5 4 3 2 1 0 0 0 0 0 0 0 0
0 0 0 0 0 0 0 0 0 0 0 1 2 4 6 8 11 14 14 12 11 13 16 17 15 14 14 14 15 15 12 8 6 6 5 5 4 3 2 2 1 0 0 0 0 0 0 0 0
0 0 0 0 0 0 0 0 0 0 0 1 2 4 4 5 7 7 6 5 5 8 12 14 13 12 10 9 9 8 7 6 4 4 4 4 3 2 1 1 1 0 0 0 0 0 0 0 0
0 0 0 0 0 0 0 0 0 0 0 0 1 2 4 5 4 3 3 3 3 5 8 10 10 10 8 7 5 4 4 4 3 2 3 3 2 1 0 0 0 0 0 0 0 0 0 0 0
0 0 0 0 0 0 0 0 0 0 0 0 0 2 5 5 4 2 1 1 2 4 6 7 8 7 7 6 5 4 4 4 3 1 1 2 1 0 0 0 0 0 0 0 0 0 0 0 0